Location: ???? ?????
(30.0052°N, 31.2891°E)
Time: 22:34:38
(UTC+00:00)

Cosmos 1726 Rocket - Pass Details

Date: 26 May 2022
Orbit: 601 x 630 km, 82.5° (Epoch: 05 July)

Event Time Altitude Azimuth Distance (km) Brightness Sun altitude
Rises 01:34:20 0° 346° (NNW) 2,898 7.3 -16.0°
Reaches altitude 10° 01:36:38 10° 340° (NNW) 1,984 6.4 -15.6°
Maximum altitude 01:40:50 46° 268° (W) 831 3.8 -14.9°
Enters shadow 01:43:44 18° 202° (SSW) 1,494 5.0 -14.4°
